AVA2580 SKBO-SKCC

Flight info

Callsign AVA2580
Flight time 0h 43m
Altitude 29000
Route OSUSU4R OSUSU DCT BUV DCT ESNUT ESNUT2A
Aircraft A320/M-SDE3FGHIRWY/LB1

Departure

Time 2026-04-25 01:38
Airport El Dorado International Airport (SKBO)

Arrival

Time 2026-04-25 02:22
Airport Camilo Daza International Airport (SKCC)
Time Latitude Longitude Altitude Speed Heading
2026-04-25 01:02 4.69654 -74.14542 8370 ft 0 kts 217°
2026-04-25 01:22 4.69664 -74.14533 8371 ft 2 kts 232°
2026-04-25 01:22 4.69673 -74.14519 8370 ft 2 kts 250°
2026-04-25 01:22 4.69677 -74.14503 8370 ft 2 kts 273°
2026-04-25 01:23 4.69674 -74.14487 8370 ft 2 kts 290°
2026-04-25 01:23 4.69667 -74.14472 8371 ft 2 kts 301°
2026-04-25 01:23 4.69660 -74.14460 8370 ft 1 kts 306°
2026-04-25 01:23 4.69658 -74.14458 8370 ft 0 kts 306°
2026-04-25 01:27 4.69661 -74.14461 8370 ft 3 kts 307°
2026-04-25 01:27 4.69694 -74.14506 8371 ft 13 kts 306°
2026-04-25 01:28 4.69843 -74.14703 8370 ft 16 kts 307°
2026-04-25 01:28 4.69927 -74.14779 8370 ft 15 kts 10°
2026-04-25 01:28 4.70036 -74.14709 8370 ft 23 kts 37°
2026-04-25 01:28 4.70158 -74.14615 8370 ft 20 kts 37°
2026-04-25 01:29 4.70273 -74.14530 8371 ft 21 kts 36°
2026-04-25 01:29 4.70388 -74.14442 8371 ft 21 kts 38°
2026-04-25 01:29 4.70487 -74.14417 8370 ft 14 kts 326°
2026-04-25 01:29 4.70549 -74.14490 8370 ft 14 kts 308°
2026-04-25 01:30 4.70609 -74.14570 8370 ft 15 kts 307°
2026-04-25 01:30 4.70671 -74.14652 8370 ft 15 kts 307°
2026-04-25 01:30 4.70735 -74.14738 8370 ft 16 kts 307°
2026-04-25 01:30 4.70801 -74.14825 8370 ft 15 kts 306°
2026-04-25 01:31 4.70865 -74.14910 8370 ft 15 kts 307°
2026-04-25 01:31 4.70932 -74.14998 8370 ft 16 kts 307°
2026-04-25 01:31 4.71000 -74.15089 8370 ft 17 kts 307°
2026-04-25 01:31 4.71071 -74.15181 8370 ft 17 kts 307°
2026-04-25 01:32 4.71164 -74.15223 8371 ft 12 kts 351°
2026-04-25 01:32 4.71206 -74.15228 8371 ft 0 kts 354°
2026-04-25 01:35 4.71217 -74.15229 8371 ft 8 kts 354°
2026-04-25 01:35 4.71301 -74.15221 8370 ft 17 kts 33°
2026-04-25 01:36 4.71306 -74.15167 8370 ft 2 kts 126°
2026-04-25 01:36 4.71296 -74.15153 8370 ft 0 kts 125°
2026-04-25 01:37 4.71286 -74.15140 8370 ft 18 kts 128°
2026-04-25 01:37 4.71071 -74.14854 8368 ft 82 kts 127°
2026-04-25 01:38 4.70615 -74.14250 8371 ft 133 kts 128°
2026-04-25 01:38 4.69963 -74.13391 8373 ft 174 kts 126°
2026-04-25 01:38 4.69205 -74.12384 8655 ft 184 kts 127°
2026-04-25 01:38 4.68421 -74.11338 9172 ft 188 kts 126°
2026-04-25 01:39 4.67861 -74.10186 9759 ft 186 kts 97°
2026-04-25 01:39 4.68025 -74.08902 10094 ft 193 kts 61°
2026-04-25 01:39 4.68963 -74.07908 10368 ft 201 kts 25°
2026-04-25 01:39 4.70344 -74.07654 10661 ft 210 kts 355°
2026-04-25 01:40 4.71861 -74.07772 10895 ft 227 kts 354°
2026-04-25 01:40 4.73490 -74.07901 11151 ft 242 kts 356°
2026-04-25 01:40 4.75188 -74.07671 11606 ft 250 kts 18°
2026-04-25 01:40 4.76836 -74.07116 12276 ft 250 kts 18°
2026-04-25 01:41 4.78494 -74.06558 12892 ft 253 kts 17°
2026-04-25 01:41 4.80205 -74.05983 13289 ft 267 kts 17°
2026-04-25 01:41 4.81995 -74.05382 13596 ft 283 kts 18°
2026-04-25 01:41 4.83929 -74.04731 13906 ft 300 kts 18°
2026-04-25 01:42 4.85971 -74.04042 14195 ft 316 kts 18°
2026-04-25 01:42 4.88112 -74.03316 14432 ft 333 kts 18°
2026-04-25 01:42 4.90359 -74.02555 14651 ft 349 kts 18°
2026-04-25 01:42 4.92709 -74.01760 14901 ft 363 kts 18°
2026-04-25 01:43 4.95121 -74.00942 15369 ft 368 kts 18°
2026-04-25 01:43 4.97557 -74.00118 15906 ft 371 kts 18°
2026-04-25 01:43 5.00015 -73.99285 16443 ft 374 kts 18°
2026-04-25 01:43 5.02492 -73.98462 16966 ft 377 kts 16°
2026-04-25 01:44 5.05024 -73.97735 17495 ft 380 kts 14°
2026-04-25 01:44 5.07599 -73.97089 18004 ft 383 kts 12°
2026-04-25 01:44 5.10201 -73.96483 18512 ft 386 kts 12°
2026-04-25 01:44 5.12827 -73.95879 18957 ft 389 kts 12°
2026-04-25 01:45 5.15467 -73.95261 19401 ft 391 kts 12°
2026-04-25 01:45 5.18130 -73.94620 19847 ft 394 kts 13°
2026-04-25 01:45 5.20805 -73.93962 20278 ft 397 kts 13°
2026-04-25 01:45 5.23492 -73.93292 20716 ft 400 kts 13°
2026-04-25 01:46 5.26202 -73.92612 21171 ft 403 kts 13°
2026-04-25 01:46 5.28964 -73.91918 21609 ft 405 kts 13°
2026-04-25 01:46 5.31711 -73.91227 22058 ft 408 kts 13°
2026-04-25 01:46 5.34474 -73.90535 22478 ft 411 kts 13°
2026-04-25 01:47 5.37258 -73.89838 22890 ft 414 kts 13°
2026-04-25 01:47 5.40065 -73.89136 23299 ft 417 kts 13°
2026-04-25 01:47 5.42888 -73.88432 23702 ft 420 kts 13°
2026-04-25 01:47 5.45732 -73.87723 24049 ft 423 kts 13°
2026-04-25 01:48 5.48598 -73.87010 24220 ft 424 kts 13°
2026-04-25 01:48 5.51460 -73.86292 24267 ft 425 kts 15°
2026-04-25 01:48 5.54232 -73.85271 24267 ft 425 kts 25°
2026-04-25 01:48 5.56838 -73.83859 24263 ft 425 kts 29°
2026-04-25 01:49 5.59428 -73.82403 24266 ft 425 kts 29°
2026-04-25 01:49 5.62013 -73.80950 24260 ft 425 kts 29°
2026-04-25 01:49 5.64582 -73.79509 24361 ft 426 kts 29°
2026-04-25 01:49 5.67202 -73.78046 24680 ft 429 kts 29°
2026-04-25 01:50 5.69815 -73.76590 25010 ft 431 kts 29°
2026-04-25 01:50 5.72404 -73.75144 25308 ft 433 kts 29°
2026-04-25 01:50 5.75086 -73.73640 25618 ft 436 kts 30°
2026-04-25 01:50 5.77740 -73.72154 25921 ft 438 kts 30°
2026-04-25 01:51 5.80408 -73.70662 26221 ft 440 kts 30°
2026-04-25 01:51 5.83085 -73.69165 26518 ft 442 kts 30°
2026-04-25 01:51 5.85780 -73.67657 26802 ft 444 kts 30°
2026-04-25 01:51 5.88479 -73.66148 27082 ft 446 kts 30°
2026-04-25 01:52 5.91187 -73.64635 27365 ft 448 kts 30°
2026-04-25 01:52 5.93929 -73.63098 27635 ft 450 kts 30°
2026-04-25 01:52 5.96672 -73.61561 27907 ft 452 kts 30°
2026-04-25 01:52 5.99427 -73.60020 28175 ft 454 kts 30°
2026-04-25 01:53 6.02195 -73.58473 28434 ft 457 kts 30°
2026-04-25 01:53 6.04978 -73.56914 28675 ft 459 kts 30°
2026-04-25 01:53 6.06862 -73.55857 28842 ft 460 kts 30°
2026-04-25 01:53 6.10608 -73.53755 29127 ft 463 kts 30°
2026-04-25 01:54 6.15195 -73.51185 29185 ft 443 kts 30°
2026-04-25 01:54 6.20567 -73.48176 29170 ft 442 kts 30°
2026-04-25 01:55 6.25948 -73.45165 29160 ft 443 kts 30°
2026-04-25 01:55 6.31370 -73.42133 29152 ft 443 kts 30°
2026-04-25 01:56 6.36755 -73.39107 29146 ft 444 kts 30°
2026-04-25 01:56 6.42153 -73.36059 29147 ft 444 kts 30°
2026-04-25 01:57 6.50247 -73.31528 29138 ft 444 kts 30°
2026-04-25 01:58 6.55643 -73.28504 29136 ft 444 kts 30°
2026-04-25 01:58 6.61038 -73.25477 29125 ft 444 kts 30°
2026-04-25 01:59 6.66436 -73.22449 29125 ft 444 kts 30°
2026-04-25 01:59 6.71828 -73.19417 29131 ft 444 kts 30°
2026-04-25 02:00 6.77220 -73.16388 29125 ft 444 kts 30°
2026-04-25 02:00 6.82612 -73.13357 29116 ft 444 kts 30°
2026-04-25 02:00 6.85293 -73.11852 28921 ft 439 kts 30°
2026-04-25 02:01 6.87951 -73.10362 28649 ft 437 kts 30°
2026-04-25 02:01 6.90595 -73.08877 28398 ft 434 kts 30°
2026-04-25 02:01 6.93229 -73.07397 28146 ft 432 kts 30°
2026-04-25 02:01 6.95852 -73.05922 27898 ft 430 kts 30°
2026-04-25 02:02 6.98493 -73.04437 27645 ft 428 kts 30°
2026-04-25 02:02 7.01072 -73.02985 27248 ft 423 kts 30°
2026-04-25 02:02 7.03631 -73.01544 26721 ft 420 kts 30°
2026-04-25 02:02 7.06171 -73.00115 26209 ft 417 kts 30°
2026-04-25 02:03 7.08661 -72.98715 25718 ft 413 kts 30°
2026-04-25 02:03 7.11158 -72.97311 25238 ft 399 kts 29°
2026-04-25 02:03 7.13540 -72.95971 24778 ft 385 kts 29°
2026-04-25 02:03 7.15834 -72.94679 24344 ft 374 kts 29°
2026-04-25 02:04 7.18098 -72.93403 23908 ft 372 kts 29°
2026-04-25 02:04 7.20345 -72.92137 23424 ft 368 kts 29°
2026-04-25 02:04 7.22572 -72.90884 22981 ft 366 kts 29°
2026-04-25 02:04 7.24786 -72.89636 22541 ft 363 kts 29°
2026-04-25 02:05 7.26984 -72.88395 22111 ft 360 kts 28°
2026-04-25 02:05 7.29163 -72.87169 21669 ft 358 kts 28°
2026-04-25 02:05 7.31333 -72.85947 21231 ft 357 kts 28°
2026-04-25 02:05 7.33497 -72.84727 20764 ft 356 kts 28°
2026-04-25 02:06 7.35656 -72.83510 20309 ft 355 kts 28°
2026-04-25 02:06 7.37815 -72.82296 19853 ft 355 kts 28°
2026-04-25 02:06 7.39980 -72.81075 19389 ft 355 kts 28°
2026-04-25 02:06 7.42157 -72.79847 18930 ft 355 kts 28°
2026-04-25 02:07 7.44310 -72.78633 18462 ft 355 kts 28°
2026-04-25 02:07 7.46461 -72.77420 17965 ft 354 kts 28°
2026-04-25 02:07 7.48610 -72.76208 17464 ft 354 kts 28°
2026-04-25 02:07 7.50832 -72.75174 17034 ft 351 kts 18°
2026-04-25 02:08 7.53224 -72.74543 16245 ft 361 kts 11°
2026-04-25 02:08 7.55670 -72.74045 15912 ft 356 kts 11°
2026-04-25 02:08 7.58086 -72.73554 15523 ft 352 kts 11°
2026-04-25 02:08 7.60482 -72.73065 15101 ft 350 kts 11°
2026-04-25 02:09 7.62861 -72.72578 14689 ft 348 kts 11°
2026-04-25 02:09 7.65229 -72.72090 14284 ft 346 kts 11°
2026-04-25 02:09 7.67577 -72.71605 13885 ft 343 kts 11°
2026-04-25 02:09 7.69849 -72.71130 13703 ft 322 kts 11°
2026-04-25 02:10 7.71964 -72.70687 13548 ft 301 kts 11°
2026-04-25 02:10 7.73974 -72.70270 13262 ft 287 kts 11°
2026-04-25 02:10 7.75860 -72.69878 13122 ft 267 kts 11°
2026-04-25 02:10 7.77615 -72.69512 12994 ft 248 kts 11°
2026-04-25 02:11 7.79243 -72.69172 12799 ft 233 kts 11°
2026-04-25 02:11 7.80810 -72.68846 12390 ft 228 kts 11°
2026-04-25 02:11 7.82363 -72.68525 11933 ft 227 kts 11°
2026-04-25 02:11 7.83904 -72.68208 11489 ft 226 kts 11°
2026-04-25 02:12 7.85440 -72.67890 11049 ft 224 kts 11°
2026-04-25 02:12 7.86964 -72.67572 10629 ft 223 kts 11°
2026-04-25 02:12 7.88476 -72.67256 10213 ft 221 kts 11°
2026-04-25 02:12 7.89980 -72.66942 9796 ft 220 kts 11°
2026-04-25 02:13 7.91523 -72.66621 9031 ft 233 kts 11°
2026-04-25 02:13 7.93152 -72.66283 8258 ft 245 kts 11°
2026-04-25 02:13 7.94849 -72.65931 7504 ft 253 kts 11°
2026-04-25 02:13 7.96598 -72.65567 6846 ft 257 kts 11°
2026-04-25 02:14 7.98290 -72.65215 6675 ft 238 kts 11°
2026-04-25 02:14 7.99831 -72.64834 6550 ft 219 kts 24°
2026-04-25 02:14 8.01017 -72.63974 6394 ft 202 kts 50°
2026-04-25 02:14 8.01655 -72.62751 6079 ft 192 kts 76°
2026-04-25 02:15 8.01726 -72.61491 5925 ft 171 kts 98°
2026-04-25 02:15 8.01511 -72.60345 5545 ft 165 kts 101°
2026-04-25 02:15 8.01298 -72.59208 5085 ft 165 kts 99°
2026-04-25 02:15 8.01430 -72.58088 4632 ft 161 kts 62°
2026-04-25 02:16 8.02207 -72.57315 4162 ft 159 kts 21°
2026-04-25 02:16 8.03271 -72.57155 3834 ft 152 kts 348°
2026-04-25 02:16 8.04097 -72.57727 3486 ft 147 kts 298°
2026-04-25 02:16 8.04217 -72.58718 3107 ft 147 kts 247°
2026-04-25 02:17 8.03540 -72.59480 3002 ft 150 kts 205°
2026-04-25 02:17 8.02529 -72.59653 2990 ft 149 kts 174°
2026-04-25 02:17 8.01585 -72.59319 2796 ft 144 kts 136°
2026-04-25 02:17 8.01148 -72.58424 2601 ft 147 kts 98°
2026-04-25 02:18 8.00970 -72.57404 2598 ft 148 kts 99°
2026-04-25 02:18 8.00782 -72.56384 2604 ft 148 kts 100°
2026-04-25 02:18 8.00591 -72.55368 2603 ft 148 kts 100°
2026-04-25 02:18 8.00400 -72.54348 2606 ft 148 kts 100°
2026-04-25 02:19 8.00210 -72.53328 2611 ft 148 kts 100°
2026-04-25 02:19 8.00019 -72.52308 2608 ft 148 kts 101°
2026-04-25 02:19 7.99772 -72.51305 2434 ft 147 kts 114°
2026-04-25 02:19 7.99179 -72.50474 2214 ft 147 kts 138°
2026-04-25 02:20 7.98310 -72.49950 2005 ft 146 kts 161°
2026-04-25 02:20 7.97300 -72.49810 1808 ft 145 kts 185°
2026-04-25 02:20 7.96322 -72.50049 1628 ft 145 kts 199°
2026-04-25 02:20 7.95360 -72.50353 1437 ft 144 kts 198°
2026-04-25 02:21 7.94408 -72.50648 1252 ft 143 kts 199°
2026-04-25 02:21 7.93463 -72.50936 1043 ft 142 kts 197°
2026-04-25 02:21 7.92628 -72.51200 1033 ft 107 kts 195°
2026-04-25 02:21 7.92074 -72.51372 1055 ft 55 kts 198°
2026-04-25 02:22 7.91850 -72.51441 1057 ft 3 kts 211°
2026-04-25 02:22 7.91825 -72.51444 1057 ft 0 kts 140°
2026-04-25 02:22 7.91827 -72.51431 1058 ft 0 kts 64°
2026-04-25 02:22 7.91882 -72.51428 1057 ft 20 kts
2026-04-25 02:23 7.92091 -72.51367 1055 ft 42 kts 17°
2026-04-25 02:23 7.92381 -72.51274 1046 ft 44 kts 17°
2026-04-25 02:23 7.92647 -72.51189 1033 ft 31 kts 18°
2026-04-25 02:23 7.92732 -72.51127 1032 ft 13 kts 64°
2026-04-25 02:24 7.92770 -72.51054 1032 ft 10 kts 64°
2026-04-25 02:24 7.92796 -72.50973 1032 ft 15 kts 60°
2026-04-25 02:24 7.92866 -72.50891 1032 ft 13 kts 53°
2026-04-25 02:24 7.92867 -72.50857 1032 ft 0 kts 107°
2026-04-25 02:25 7.92866 -72.50856 1032 ft 1 kts 107°
2026-04-25 02:25 7.92837 -72.50819 1032 ft 9 kts 163°
2026-04-25 02:25 7.92800 -72.50832 1032 ft 4 kts 206°
2026-04-25 02:25 7.92788 -72.50838 1032 ft 0 kts 206°